Regional Weather Roundup
Issued by NWS

Home | Current Version | Previous Version | Graphics & Text | Print | Product List | Glossary On
Versions: 1 2 3 4 5 6 7 8 9 10 11 12 13 14 15 16 17 18 19 20 21 22 23 24 25 26 27 28 29 30 31 32 33 34 35 36 37 38 39 40 41 42 43 44 45 46 47 48 49 50
000
ASUS43 KFSD 290610
RWRSD

WEATHER ROUNDUP FOR SOUTH DAKOTA
NATIONAL WEATHER SERVICE SIOUX FALLS SD
1200 AM CST SAT NOV 29 2014

NOTE: "FAIR" INDICATES FEW OR NO CLOUDS BELOW 12,000 FEET WITH NO
SIGNIFICANT WEATHER AND/OR OBSTRUCTIONS TO VISIBILITY.


SDZ001>005-009-010-012>017-290700-
NORTHWEST AND NORTH CENTRAL SOUTH DAKOTA

CITY           SKY/WX    TMP DP  RH WIND       PRES   REMARKS
BUFFALO          N/A     44  27  51 SW13      29.34F
FAITH            N/A     33  26  75 S15       29.42F WCI  23
MOBRIDGE       PTCLDY    27  22  81 S13       29.41F WCI  16
$$

SDZ012>016-024>037-041>051-057-063-072>074-290700-
SOUTHWEST AND SOUTH CENTRAL SOUTH DAKOTA

CITY           SKY/WX    TMP DP  RH WIND       PRES   REMARKS
RAPID CTY ARPT CLEAR     50  20  30 SW9       29.47F
PIERRE         PTCLDY    28  25  88 SE8       29.45F WCI  20
CUSTER         MOCLDY    46  18  32 W14G24    29.57F
ELLSWORTH AFB  CLEAR     49  23  34 W13       29.45F
PHILIP         CLEAR     38  26  62 W6        29.46F
PINE RIDGE     CLEAR     52  21  29 SW17      29.56R
SPEARFISH      FAIR      55  18  22 SW28G36   29.47S
WINNER         FAIR      48  25  40 SW9       29.48F
$$

SDZ004>011-016>023-039-040-290700-
NORTHEAST SOUTH DAKOTA

CITY           SKY/WX    TMP DP  RH WIND       PRES   REMARKS
ABERDEEN       CLOUDY    21  17  84 CALM      29.50F
WATERTOWN      PTCLDY    23  21  92 S13       29.50F WCI  11
SISSETON         N/A     19  18  95 S16       29.53F WCI   4
$$

SDZ017-020-022-023-036>040-048>070-290700-
SOUTHEAST SOUTH DAKOTA

CITY           SKY/WX    TMP DP  RH WIND       PRES   REMARKS
SIOUX FALLS    PTCLDY    22  19  89 NE7       29.54F WCI  13
HURON          CLEAR     25  23  92 SE6       29.50F WCI  18
CHAMBERLAIN    PTCLDY    26  23  91 SE6       29.47F WCI  19
MITCHELL       PTCLDY    28  25  88 SE8       29.52F WCI  20
YANKTON        CLEAR     27  23  86 E7        29.54F WCI  19
$$

ABBREVIATIONS USED IN REMARKS
   TC - TEMPERATURE IN CELSIUS
  WCI - WIND CHILL INDEX
   HX - HEAT INDEX
  VSB - VISIBILITY



USA.gov is the U.S. government's official web portal to all federal, state and local government web resources and services.